Location: ???????
(55.2903°N, 39.1554°E)
Time: 07:50:32
(UTC+00:00)

ARIANE 6 FM1 Upper Stage - Visible Passes

Search period start: 22 April 2026 00:00
Search period end: 02 May 2026 00:00
Orbit: 525 x 604 km, 62.0° (Epoch: 21 April)

Date Brightness Start Highest point End Pass type
(mag) Time Alt. Az. Time Alt. Az. Time Alt. Az.
22 Apr 4.0 18:20:07 10° NW 18:23:49 34° N 18:27:29 10° ENE visible
22 Apr 2.5 19:59:15 10° NW 20:03:16 78° NE 20:04:06 54° ESE visible
22 Apr 4.6 21:38:40 10° WNW 21:40:03 17° W 21:40:03 17° W visible
23 Apr 3.9 18:19:46 10° NW 18:23:32 36° NNE 18:27:15 10° E visible
23 Apr 2.4 19:58:51 10° NW 20:02:52 85° SW 20:03:30 61° SE visible
23 Apr 4.9 21:38:34 10° WNW 21:39:28 14° W 21:39:28 14° W visible
24 Apr 3.6 18:19:24 10° NW 18:23:14 41° NNE 18:26:58 10° E visible
24 Apr 2.5 19:58:28 10° WNW 20:02:26 66° SW 20:02:56 58° S visible
24 Apr 5.1 21:38:43 10° W 21:38:54 11° W 21:38:54 11° W visible
25 Apr 3.4 18:19:01 10° NW 18:22:54 46° NNE 18:26:25 12° E visible
25 Apr 2.8 19:58:05 10° WNW 20:01:58 50° SW 20:02:23 48° SSW visible
26 Apr 3.1 18:18:36 10° NW 18:22:34 55° NNE 18:25:53 14° ESE visible
26 Apr 3.2 19:57:45 10° WNW 20:01:28 38° SW 20:01:51 37° SSW visible
27 Apr 2.8 18:18:11 10° NW 18:22:10 66° NNE 18:25:23 15° ESE visible
27 Apr 3.6 19:57:27 10° WNW 20:00:56 29° SW 20:01:21 28° SW visible
28 Apr 2.6 18:17:45 10° NW 18:21:47 82° NE 18:24:54 16° ESE visible
28 Apr 4.1 19:57:14 10° WNW 20:00:22 22° SW 20:00:52 22° SW visible
29 Apr 2.5 18:17:19 10° NW 18:21:21 80° SW 18:24:27 16° SE visible
29 Apr 4.5 19:57:09 10° W 19:59:46 17° WSW 20:00:25 16° SW visible
30 Apr 2.8 18:16:55 10° WNW 18:20:53 62° SW 18:24:01 15° SE visible
30 Apr 4.8 19:57:22 10° W 19:59:07 13° WSW 19:59:59 12° SW visible
1 May 3.1 18:16:32 10° WNW 18:20:23 47° SW 18:23:38 14° SSE visible
